Wind_Speed
36 37 37 35 34 36 37 38 37 37 39 39 36 35 33 31 29 29 34 34 31 32 31 31 33 31 31 33 32 30 30 31 32 33 33 33 33 32 32 32 31 30 30 30 29 28 28 26 25 25 25 25 25 25 25 26 26 27 27 28 27 27 27 27 28 29 29 30 31 31 31 31 31 32 32 32 33 33 34 35 36 37 38 39 40 41
37 39 38 35 35 38 40 38 37 38 39 39 36 33 32 31 31 31 34 35 33 34 33 32 33 32 30 32 33 31 30 32 32 33 34 34 34 33 33 32 31 31 30 30 30 29 28 26 25 24 24 25 25 25 25 26 26 27 27 27 27 27 28 28 29 30 30 31 31 31 31 31 31 32 33 33 34 35 36 37 38 39 40 41 43 44
39 40 38 37 37 39 39 38 38 37 37 36 34 33 32 32 32 33 35 35 34 35 34 33 34 33 30 31 33 31 29 31 32 32 33 34 34 34 33 32 31 31 30 29 30 29 28 26 25 24 24 24 24 25 25 26 26 27 27 27 27 28 29 30 30 31 31 31 31 31 31 31 32 33 33 34 36 37 38 39 40 41 43 44 45 46
42 41 40 39 39 38 36 36 37 36 35 33 33 33 33 33 34 35 35 36 35 35 35 35 36 34 30 30 32 31 29 30 32 33 34 33 33 34 33 32 31 30 29 29 29 29 28 26 25 25 25 25 25 25 25 26 26 26 27 27 28 29 30 30 31 31 31 31 31 31 31 32 33 34 35 36 37 39 40 41 42 44 45 46 47 48
43 42 43 40 37 36 35 35 35 35 34 33 33 34 35 35 36 36 37 38 36 35 36 37 39 35 30 30 31 30 30 30 31 32 33 34 33 33 33 33 31 30 29 29 29 29 28 26 26 26 25 25 25 25 25 25 26 26 27 28 29 30 31 31 31 31 31 31 31 31 31 32 33 35 36 38 39 41 42 43 45 46 47 48 49 49
43 44 44 40 35 34 36 36 35 35 35 34 35 36 36 36 37 37 38 40 39 37 36 38 40 37 32 31 30 29 30 31 32 33 33 33 33 33 33 32 30 29 29 29 29 28 28 27 27 26 26 25 24 24 24 25 26 27 28 29 30 30 30 30 30 30 30 31 31 31 32 33 34 36 38 39 41 42 44 45 46 47 48 49 49 49
44 43 42 40 36 34 36 37 36 35 35 36 37 38 38 37 37 38 38 41 41 39 39 39 40 39 33 31 32 32 31 30 32 34 32 32 32 31 31 30 29 29 29 29 28 28 28 27 27 26 25 24 23 23 24 25 27 28 28 29 29 29 29 29 29 30 30 31 31 32 33 35 37 38 40 41 42 44 45 46 47 48 48 49 49 50
44 42 41 40 38 36 36 36 36 36 36 38 39 39 39 38 38 38 39 42 42 42 42 41 41 41 35 31 33 35 35 32 31 33 32 30 31 30 29 29 29 29 28 28 28 27 27 26 25 24 24 23 23 24 25 27 28 28 29 29 29 29 29 29 30 30 31 31 32 33 35 37 39 41 42 43 44 45 46 47 48 48 49 49 50 51
43 42 41 40 38 38 37 36 36 37 38 39 39 39 40 40 39 40 41 42 43 44 44 41 41 43 38 35 36 36 35 33 30 32 32 30 30 30 29 29 28 27 27 26 25 25 24 24 24 23 23 24 24 26 27 28 29 30 30 31 31 30 30 31 31 32 32 33 34 36 37 39 41 43 44 45 46 47 47 48 48 49 49 50 51 52
45 43 40 39 39 38 37 37 37 38 40 40 40 40 40 41 41 42 43 43 45 46 44 42 42 43 41 39 39 37 33 30 30 32 32 31 30 30 29 28 28 27 26 25 24 23 23 24 24 24 24 25 26 27 28 29 30 31 32 32 32 31 31 31 32 33 34 35 37 38 40 42 43 45 46 47 47 47 48 48 49 50 50 51 52 54
46 44 41 40 39 38 38 38 38 39 41 41 42 42 42 43 43 44 45 45 48 47 42 42 42 43 44 41 40 39 32 28 30 32 32 31 30 29 28 28 27 27 25 24 24 24 25 25 25 25 26 26 28 29 30 31 32 33 33 33 33 32 32 33 34 35 36 38 40 41 43 44 45 46 47 47 48 48 48 49 50 51 52 53 55 56
44 43 43 42 40 40 40 39 39 40 41 41 42 43 43 45 45 46 47 48 51 47 42 44 43 44 47 43 41 40 33 28 29 30 31 31 30 29 29 28 28 27 25 25 25 26 26 26 25 26 26 27 29 30 31 32 33 33 34 34 33 33 34 35 37 38 40 41 43 44 45 46 47 47 48 48 48 49 49 50 51 53 54 56 57 58
45 44 44 44 43 42 41 41 41 41 40 41 42 43 44 46 48 49 50 50 50 47 44 45 45 46 48 43 40 40 35 28 26 28 30 31 30 29 29 29 28 27 26 26 27 27 27 26 25 26 27 28 30 31 32 33 34 34 34 34 35 36 37 38 40 42 43 44 45 47 47 47 48 48 48 49 50 51 51 53 54 55 56 58 60 61
47 46 45 45 44 43 42 42 42 41 41 42 43 43 44 47 49 51 50 49 48 46 45 45 47 50 48 43 39 37 35 31 26 26 28 29 29 29 29 29 28 28 27 27 27 28 27 26 26 26 28 29 31 32 33 34 34 35 35 36 37 39 41 42 43 44 45 47 48 48 48 48 49 49 50 51 52 53 54 56 57 58 59 61 62 64
49 48 46 45 44 43 43 43 42 43 44 45 45 45 47 48 48 48 48 49 49 48 47 49 50 50 47 44 40 36 34 31 26 24 26 28 29 28 28 28 28 28 27 27 28 28 27 27 27 28 30 31 32 33 34 35 35 36 37 38 40 42 44 45 46 47 48 48 49 49 49 50 50 51 52 53 54 56 57 59 60 61 62 63 65 66
50 49 48 46 45 44 44 44 44 46 47 46 46 48 49 47 45 45 47 49 49 50 52 52 51 49 46 44 41 35 30 27 25 24 26 28 29 28 28 27 28 28 27 28 29 28 28 29 30 32 33 34 34 35 36 36 37 38 39 41 42 44 45 46 47 48 49 49 50 50 51 51 52 52 53 55 57 58 60 61 62 63 65 66 68 69
51 51 50 50 48 47 46 46 47 48 49 49 49 49 48 46 45 45 48 49 49 52 54 53 51 49 46 44 40 33 28 24 24 25 27 27 27 27 27 28 28 28 28 29 30 30 30 32 34 36 37 37 37 38 38 39 39 40 41 43 44 46 46 47 48 49 49 50 51 52 52 53 53 54 55 57 59 61 63 64 65 66 68 69 71 72
51 53 54 53 52 50 48 47 48 51 52 52 50 48 46 47 48 48 50 50 50 53 54 53 52 50 48 44 38 33 29 26 25 25 26 25 25 26 27 28 29 30 31 32 33 33 34 36 37 38 39 40 40 40 40 41 42 43 43 45 46 47 48 49 49 50 51 51 52 53 53 54 55 56 58 60 62 63 65 66 68 69 71 73 74 76
52 54 55 55 53 50 48 48 49 51 52 51 49 48 48 50 50 50 50 51 52 54 54 53 52 50 47 43 38 34 32 30 27 25 24 23 24 26 29 31 32 32 33 34 35 36 37 38 39 40 41 41 41 42 43 44 44 44 46 47 48 49 50 50 50 51 52 53 54 55 55 56 57 59 60 62 64 66 68 69 71 73 74 76 77 79
48 50 53 54 53 51 49 49 49 48 48 47 47 48 50 51 51 50 50 51 51 53 53 53 52 49 46 43 39 36 35 34 32 29 28 27 28 29 31 33 35 36 36 37 37 37 38 40 41 42 42 41 42 44 45 45 46 47 49 50 51 51 51 51 52 53 54 55 56 56 57 58 60 62 64 66 68 69 71 72 74 75 77 78 80 81
46 49 51 52 52 51 51 50 48 46 46 47 48 49 49 49 50 50 50 50 50 51 52 53 52 49 46 45 41 39 38 37 36 34 32 32 33 34 34 34 37 39 39 39 39 40 40 41 42 42 42 43 45 46 46 47 48 50 51 52 53 53 53 54 55 56 57 57 57 58 59 61 63 65 67 69 70 72 73 75 76 78 79 81 82 83
47 49 49 50 51 51 51 51 51 51 51 51 51 51 50 49 49 50 52 51 50 50 50 51 52 48 46 46 44 42 41 39 38 37 35 35 37 37 37 37 39 40 41 41 41 42 42 42 42 43 43 45 47 48 48 50 51 52 53 54 55 56 56 57 57 58 59 59 59 60 62 64 66 68 70 71 73 74 75 77 78 79 81 83 84 84
47 49 49 51 52 53 54 55 55 55 54 53 53 53 53 52 51 51 51 50 49 49 48 49 50 47 45 46 45 44 43 42 41 38 36 37 38 38 39 40 40 40 41 42 43 43 43 42 43 44 46 48 49 50 51 52 53 54 56 57 58 58 58 59 59 60 60 61 62 64 65 67 69 71 72 74 75 76 77 78 79 81 83 84 85 85
48 49 49 51 53 55 57 57 57 57 56 56 55 52 51 51 49 48 48 48 48 49 47 49 51 47 44 46 45 45 45 44 42 40 39 39 39 41 42 41 40 40 41 43 43 44 43 43 44 47 49 50 51 52 54 55 56 57 58 59 60 61 61 62 62 62 63 64 65 66 68 70 71 73 74 76 77 77 78 80 81 82 84 84 85 84
49 51 51 52 55 56 57 57 57 56 55 53 50 46 46 47 47 46 46 46 48 48 47 50 51 46 44 46 46 44 43 43 43 43 42 42 42 43 43 42 43 44 44 44 44 44 44 45 47 49 51 52 53 55 57 58 59 60 60 61 62 63 63 63 63 63 64 66 67 68 70 72 73 75 76 77 78 79 80 81 82 83 84 84 83 83
52 54 56 57 58 57 55 55 54 51 49 48 45 43 42 42 44 44 44 45 48 49 48 50 50 46 45 47 47 46 45 43 44 45 45 46 47 47 46 46 47 47 46 45 44 45 46 47 49 51 52 53 56 58 60 60 61 61 62 63 63 64 63 63 64 65 66 68 69 71 72 74 75 76 77 78 80 81 82 82 83 83 83 82 82 81
55 57 57 58 58 55 52 50 50 49 49 48 46 44 42 41 41 43 46 48 48 47 47 48 47 46 46 47 48 48 48 47 47 48 50 50 49 50 50 50 50 49 48 47 47 47 48 49 51 52 54 57 59 61 61 62 62 63 63 64 65 65 64 65 66 67 69 70 72 73 74 75 77 78 79 81 82 83 83 82 82 81 81 81 80 78
57 57 55 54 54 52 49 49 50 50 49 47 46 45 45 45 45 48 51 49 46 47 48 46 45 46 47 48 49 51 52 52 52 53 53 53 51 52 54 54 52 52 52 52 52 52 52 52 52 54 57 59 61 62 63 63 64 64 65 66 66 66 66 67 68 69 71 72 73 75 76 77 78 79 81 82 82 82 82 81 81 80 79 78 77 76
58 56 52 52 53 50 49 50 50 50 50 47 47 47 47 49 51 52 52 48 48 51 50 48 49 49 49 51 53 54 56 56 56 56 55 55 55 56 57 57 56 56 57 57 56 56 54 53 55 57 60 61 62 63 64 64 65 66 67 67 67 67 68 69 70 70 72 73 75 76 76 77 78 80 81 82 81 81 80 79 79 78 77 76 75 74
58 56 53 54 53 51 50 51 51 52 52 50 50 49 49 51 53 55 53 51 53 55 53 53 55 53 53 56 57 57 58 58 57 58 58 58 58 58 59 59 59 59 60 59 58 56 55 56 58 60 61 62 63 64 64 65 65 66 67 67 68 68 69 70 71 72 73 74 75 76 77 77 79 80 80 80 79 78 78 77 76 75 74 74 73 73
57 57 55 56 56 53 51 52 54 55 55 54 53 52 52 54 57 57 56 55 57 58 55 55 58 57 57 58 56 56 57 56 57 58 58 59 59 59 60 61 62 62 62 60 58 56 57 59 61 62 63 65 65 65 65 65 66 67 67 67 68 69 70 71 72 73 74 74 75 76 76 77 78 79 79 78 77 77 76 75 74 74 73 73 72 72
55 56 56 56 57 54 51 53 55 55 57 58 57 55 56 59 60 59 58 58 60 60 57 57 59 58 56 54 53 53 55 56 56 57 58 59 59 60 62 64 66 65 63 61 59 59 61 63 64 65 67 67 66 66 66 66 67 67 68 68 69 70 72 73 72 72 73 74 75 75 75 76 77 77 77 76 76 75 74 73 72 72 72 71 71 70
52 54 53 53 54 52 50 52 54 54 58 61 58 55 58 61 60 60 60 61 60 58 57 57 56 53 51 51 52 53 54 55 56 57 59 60 61 63 65 66 67 65 62 61 61 62 64 65 67 68 68 67 66 66 67 68 68 68 68 69 70 72 73 73 72 72 73 74 74 74 74 75 75 76 75 74 74 73 73 72 71 71 71 70 70 71
52 53 53 53 52 50 49 50 52 56 60 60 57 56 60 62 61 61 62 61 60 58 57 56 54 52 53 54 54 54 54 56 58 59 61 61 63 65 66 66 66 64 62 62 63 65 67 68 68 68 67 66 67 67 69 69 69 68 69 70 71 72 73 72 71 72 73 74 73 73 72 73 74 74 74 73 73 72 72 71 71 70 70 70 71 72
56 55 56 56 56 55 53 53 56 60 62 62 61 61 63 64 64 64 63 61 60 59 57 56 55 55 56 55 55 55 56 58 59 61 62 63 65 65 65 64 63 62 62 63 65 67 68 68 67 66 66 67 68 69 70 69 69 70 70 71 72 72 71 71 71 72 73 72 72 71 71 72 73 73 72 72 72 72 71 70 70 70 70 71 72 73
59 58 59 60 61 62 61 61 63 65 64 62 63 63 63 64 65 65 64 61 60 60 59 58 57 56 57 58 58 59 60 61 62 62 63 63 63 61 61 61 61 63 64 66 68 68 68 67 66 67 68 69 69 70 70 70 70 70 70 71 71 71 70 71 71 71 71 71 70 69 69 71 72 72 71 71 71 70 69 70 70 71 71 72 73 74
60 61 62 64 65 65 66 66 66 66 64 64 64 64 64 64 65 66 65 62 60 61 62 60 58 58 59 59 59 60 61 62 62 61 60 60 59 60 61 62 64 66 67 67 67 67 66 66 67 68 68 69 69 69 69 70 70 70 69 70 70 69 70 70 70 69 69 69 68 68 68 70 71 70 70 70 70 69 69 70 71 71 72 73 73 74
63 64 65 66 67 66 66 65 65 66 66 65 65 65 65 65 65 66 65 62 61 62 62 60 58 58 59 60 60 61 61 62 61 58 58 59 61 63 64 65 65 66 66 66 65 65 66 66 67 67 68 69 69 69 69 69 69 69 69 69 68 69 69 69 68 68 67 67 66 67 68 69 69 69 69 68 68 68 69 70 71 72 72 73 73 73
65 64 64 64 65 66 66 66 65 65 65 64 64 64 64 63 63 64 64 63 61 61 62 60 58 58 59 60 61 61 62 62 60 58 59 62 64 64 65 65 65 65 64 64 65 65 65 66 67 68 69 69 69 69 69 69 69 69 68 68 68 68 68 67 66 65 65 66 66 67 68 68 68 67 67 67 68 69 70 71 72 72 72 72 72 70
64 63 63 63 64 65 65 65 65 65 64 63 63 62 62 62 62 63 64 63 61 61 61 59 58 59 60 60 60 60 60 60 60 60 62 63 63 63 63 63 63 64 64 65 65 66 67 67 68 69 69 69 69 69 69 69 68 68 67 66 67 66 65 64 64 64 65 66 66 66 66 66 66 66 66 67 68 70 71 72 72 72 71 70 68 64
61 61 61 61 61 61 62 63 64 64 62 61 60 60 61 62 62 62 63 62 61 61 62 61 60 59 59 58 58 58 59 59 60 61 61 61 61 62 63 64 64 65 65 66 67 68 68 69 69 69 69 69 69 69 68 68 67 66 65 65 65 63 63 63 64 64 65 65 64 64 64 64 65 66 67 68 69 70 71 72 72 71 69 66 62 59
59 58 58 58 57 58 59 60 61 61 60 59 59 60 61 62 62 62 62 62 62 63 63 62 61 59 58 58 58 58 59 59 60 60 60 61 63 63 64 65 65 66 67 68 68 69 69 69 69 69 69 69 68 68 67 66 65 64 63 63 62 61 62 63 64 64 63 63 63 63 63 64 65 66 68 69 70 71 71 71 70 67 64 61 58 58
58 57 57 58 58 58 58 59 60 60 58 57 57 59 59 61 62 62 62 63 62 61 61 61 60 59 59 60 60 61 61 61 61 62 62 63 63 64 64 65 66 67 68 68 68 68 68 69 69 69 68 68 67 66 65 63 62 62 62 61 60 61 62 63 63 63 62 62 62 63 64 65 67 68 69 70 70 71 70 68 66 62 59 58 58 59
59 59 59 59 59 59 60 60 60 60 58 57 57 58 59 60 61 60 60 60 60 59 59 59 59 60 60 60 60 60 61 61 62 63 64 64 65 66 66 67 67 68 68 68 69 69 69 69 69 68 67 66 64 63 62 61 61 61 61 60 60 62 62 62 62 62 62 63 63 65 66 67 68 69 69 70 69 69 67 64 61 58 57 58 59 60
58 57 57 57 57 57 58 58 58 58 57 57 57 56 57 58 58 58 58 58 59 59 59 59 60 60 60 60 60 61 62 63 65 66 66 67 68 68 68 69 69 69 69 69 69 69 68 67 66 65 64 63 62 61 60 60 60 60 59 59 61 62 62 62 63 63 64 64 65 67 68 68 69 69 69 68 67 65 63 60 58 58 58 59 60 61
55 55 55 56 56 57 56 56 56 56 56 55 56 56 56 57 57 57 58 59 59 59 60 60 61 61 62 63 64 65 67 67 68 68 68 68 68 69 69 68 68 68 67 67 66 65 65 64 63 62 62 61 60 60 60 60 60 59 59 60 62 63 63 64 64 65 66 66 67 68 69 68 68 68 67 66 64 61 59 58 58 59 59 60 61 62
54 55 56 57 57 57 57 57 56 56 56 56 57 58 59 59 59 60 60 61 61 62 62 62 62 63 64 65 67 68 68 68 68 68 68 68 67 67 66 66 65 65 64 63 63 63 62 61 60 60 60 59 59 59 59 59 59 59 61 62 63 64 65 66 66 67 67 68 68 68 68 67 67 66 64 62 60 59 58 58 59 60 60 61 61 62
54 55 57 58 58 58 58 58 58 58 58 58 60 61 62 63 63 63 64 64 64 64 64 64 64 65 66 67 68 68 67 67 67 67 67 66 65 64 64 63 62 62 61 61 61 60 60 60 60 59 59 58 59 59 59 60 60 61 63 64 65 66 67 67 68 68 68 67 67 67 66 66 65 63 61 60 59 58 59 59 59 60 60 61 61 62
56 57 57 58 58 58 58 58 58 59 61 62 64 65 66 66 66 66 66 66 65 65 66 66 67 67 68 67 67 66 65 65 65 64 64 63 63 62 61 60 60 59 59 59 59 59 60 59 59 59 59 59 59 60 61 62 63 64 65 66 67 67 67 67 67 66 66 66 66 65 64 63 61 60 59 59 59 59 59 60 60 61 61 62 62 63
57 58 57 56 57 57 57 58 59 61 63 65 66 66 67 67 66 66 66 65 65 66 67 67 67 67 66 65 64 63 62 62 61 61 61 60 59 59 58 58 58 58 58 58 59 59 59 59 59 59 60 60 61 62 63 64 66 66 67 67 67 66 66 65 64 64 64 64 63 62 61 60 59 59 59 59 59 60 60 61 61 62 62 63 64 64
59 59 59 58 58 58 58 58 60 61 63 64 65 66 66 66 65 65 65 65 65 66 66 66 66 65 64 62 61 60 59 59 59 59 58 58 57 57 57 57 57 57 58 59 59 59 59 60 60 61 61 62 64 65 65 66 66 66 66 65 65 64 64 63 63 62 62 61 60 59 59 59 59 59 59 60 61 61 62 62 62 63 63 64 65 65
Wind_Direction
275 277 279 281 282 281 279 279 280 280 279 279 280 280 280 277 275 276 278 279 278 277 276 277 278 279 281 282 280 278 278 278 277 276 276 275 274 273 273 273 274 274 274 274 274 273 272 270 267 264 263 263 264 264 265 267 270 272 275 277 278 278 278 280 282 283 285 286 287 287 287 287 288 288 290 291 291 291 292 293 293 293 293 293 293 292
275 277 280 282 280 279 279 278 278 277 277 278 279 278 275 274 274 275 276 278 278 277 278 278 278 279 280 282 282 281 280 278 276 276 275 275 274 273 273 273 273 273 273 272 271 271 271 269 266 264 263 263 264 264 266 267 270 272 273 274 274 275 277 279 281 282 284 284 285 285 285 286 287 288 289 290 291 291 292 292 291 291 290 289 289 288
275 278 280 280 277 276 278 279 277 275 276 277 277 274 271 272 273 273 274 275 276 277 279 279 278 279 281 283 284 284 281 278 277 276 275 274 274 274 273 272 271 271 271 270 269 268 268 266 264 262 262 262 263 264 266 268 269 271 271 272 273 276 279 281 283 284 284 284 284 284 285 286 287 288 288 289 289 289 289 288 288 287 287 287 287 288
276 278 278 275 275 276 277 277 276 276 275 274 272 270 270 271 273 273 274 274 274 276 278 278 277 278 281 283 285 287 285 280 277 276 275 275 274 273 272 271 269 269 268 267 265 265 264 262 261 261 261 261 263 264 266 268 269 271 272 274 277 280 283 284 285 284 284 284 285 285 287 287 288 288 288 288 288 288 288 288 288 288 288 289 290 291
276 277 274 273 273 275 275 273 273 274 273 271 270 270 271 273 273 274 275 275 274 276 278 278 278 277 278 280 284 288 288 284 278 275 274 275 274 273 272 271 269 267 265 263 262 261 260 259 259 259 260 261 263 265 268 270 272 274 277 280 282 284 285 286 286 285 285 285 286 286 287 288 289 290 290 290 290 289 289 289 289 289 290 290 291 292
274 273 273 272 271 271 271 270 270 271 271 272 271 271 273 275 275 275 276 276 276 276 276 277 278 278 278 279 283 287 286 283 279 275 274 274 274 272 271 270 268 265 263 261 260 258 258 258 259 260 261 263 265 268 271 275 278 281 283 285 286 286 286 286 286 285 285 284 285 286 288 290 292 293 293 292 292 291 291 290 290 290 290 291 291 292
270 269 270 271 270 267 267 268 270 271 271 272 273 274 275 275 275 275 275 276 277 278 278 276 277 278 278 280 286 288 284 278 275 275 275 274 273 271 269 268 265 262 260 259 259 259 259 260 261 263 264 267 269 273 277 280 283 286 287 287 287 286 285 285 284 284 283 284 286 289 292 294 295 295 295 294 294 293 292 291 291 291 291 291 292 292
268 267 267 268 268 267 267 269 271 272 272 272 274 275 275 275 273 272 272 273 276 278 277 277 278 280 279 282 287 288 285 279 273 274 274 272 270 268 267 264 262 259 258 258 259 260 261 262 263 265 267 270 274 278 281 284 285 287 288 287 286 285 284 283 283 283 285 287 290 292 294 296 296 296 296 295 294 294 293 292 292 292 292 292 292 291
266 265 265 267 268 268 269 270 271 272 273 273 273 273 274 274 272 271 270 272 274 275 275 276 279 281 283 285 285 286 287 283 274 270 270 269 268 266 265 263 260 258 257 257 258 259 261 262 264 266 269 272 277 281 283 284 285 286 286 286 286 285 284 284 284 285 287 289 291 293 294 295 296 297 296 296 295 294 293 293 293 292 292 291 291 291
264 264 265 266 267 269 270 271 271 271 271 271 272 272 272 272 271 270 270 271 272 272 273 277 280 284 285 283 284 289 291 285 273 268 267 266 265 265 264 261 257 255 255 256 257 260 262 264 266 269 272 276 279 282 284 284 285 285 285 286 286 286 286 286 286 287 289 290 292 293 294 295 296 296 296 295 294 294 293 293 293 292 291 291 291 291
265 266 266 265 267 269 270 270 269 269 270 271 271 270 271 271 270 271 271 271 270 269 274 279 283 287 285 281 285 293 294 283 272 268 265 263 262 261 259 256 253 253 254 257 261 264 266 267 269 272 275 278 281 283 284 284 285 286 286 286 286 286 287 287 288 289 290 292 293 294 294 295 295 296 295 294 293 293 293 292 291 291 291 292 292 292
264 265 265 265 265 266 266 268 268 269 271 272 272 272 271 271 270 270 269 270 269 271 277 281 284 285 283 283 290 294 293 282 271 265 262 260 259 258 255 252 251 253 256 260 264 266 267 268 271 274 277 280 282 283 284 286 286 287 287 287 287 287 288 289 290 291 291 292 294 294 294 295 295 295 295 294 293 292 292 292 291 292 293 293 294 294
260 261 262 264 265 266 267 269 270 271 273 274 273 272 271 270 269 268 267 269 271 274 279 282 284 282 280 284 292 295 292 282 268 261 260 260 259 256 254 252 252 255 259 263 265 266 267 269 272 275 278 280 282 283 284 285 286 287 287 287 288 289 290 291 291 291 292 294 295 295 295 296 296 295 294 293 293 292 292 293 294 294 295 296 296 297
261 261 262 265 267 269 270 270 270 271 270 269 268 268 267 267 267 268 270 273 274 276 278 280 280 279 281 287 293 293 288 281 270 263 261 261 260 257 253 253 254 257 260 263 264 265 267 269 272 275 278 280 282 283 284 285 285 286 287 289 290 291 292 292 292 292 294 294 295 295 296 296 296 295 294 294 293 294 294 295 296 296 297 297 297 297
263 263 264 265 267 268 269 269 269 268 266 265 265 266 265 265 267 271 275 277 277 277 277 277 277 279 285 290 292 289 282 278 274 267 261 259 258 256 254 253 254 257 260 262 263 265 267 269 271 274 277 280 283 285 285 285 287 288 289 291 292 292 292 292 293 293 293 294 295 296 296 296 296 295 295 294 295 295 296 296 297 297 297 298 298 298
264 265 265 265 265 265 266 266 266 266 266 266 265 264 265 267 269 272 274 275 276 277 276 276 278 282 286 289 289 286 278 273 271 266 260 258 257 258 258 256 256 259 261 262 263 265 268 269 271 273 276 281 284 285 285 286 287 288 289 290 291 291 291 292 292 292 293 294 295 296 296 295 295 295 295 295 296 296 296 297 298 298 298 298 298 298
264 264 263 263 263 263 263 264 265 265 266 265 264 264 267 269 270 270 270 271 274 275 275 278 281 284 286 285 284 283 275 266 265 264 263 263 263 262 260 258 259 260 262 263 265 267 269 270 271 273 277 280 282 284 284 285 286 287 288 289 290 290 290 290 291 292 293 294 294 294 295 295 295 296 296 296 297 297 297 297 298 298 298 298 299 299
261 262 261 262 264 264 263 263 263 263 264 264 265 266 267 267 268 268 270 271 272 274 276 279 281 282 282 281 280 277 271 264 264 266 269 271 270 266 262 260 261 261 263 264 266 269 270 271 273 275 277 279 282 283 284 284 286 288 289 290 291 291 291 291 291 293 293 294 294 294 295 295 296 296 297 297 297 297 297 298 299 299 299 299 300 299
259 261 262 263 264 264 262 261 260 261 263 265 268 268 267 266 267 267 269 271 273 274 276 277 277 278 279 278 276 272 267 263 265 270 274 276 273 270 266 264 263 263 264 265 267 269 270 271 273 275 276 279 281 283 284 286 289 291 292 292 292 291 291 291 293 293 294 294 294 295 296 296 297 297 297 297 297 297 298 299 300 300 300 300 300 299
259 261 262 262 264 264 263 261 261 262 266 269 269 268 266 266 267 267 268 270 271 272 273 274 275 276 277 276 274 271 266 263 265 272 277 276 275 275 272 269 266 265 265 266 268 269 270 271 273 274 276 279 282 284 286 289 291 293 293 293 292 292 292 292 293 294 295 295 296 296 297 297 297 297 297 297 297 298 299 300 300 301 301 300 300 299
259 260 262 264 265 266 265 265 265 265 266 266 265 265 265 265 266 266 266 266 266 268 270 272 275 278 278 276 274 272 269 267 267 270 273 275 276 277 277 273 269 266 266 267 269 270 271 272 274 274 276 279 282 285 288 290 292 293 293 293 293 293 293 293 293 294 295 296 296 297 297 297 297 297 297 297 298 299 300 300 300 300 300 300 299 299
262 263 264 264 264 265 267 268 266 264 263 262 262 261 261 262 262 262 263 264 265 268 271 273 275 277 275 274 274 274 274 273 271 271 272 274 275 277 277 275 271 268 267 267 269 270 272 273 274 275 276 279 283 286 289 291 293 294 295 295 294 293 292 292 293 294 295 296 296 296 296 296 296 297 297 298 299 299 300 300 300 300 299 299 299 298
263 262 260 261 264 267 269 268 266 265 264 262 260 258 257 258 260 262 265 267 268 269 269 270 271 271 271 273 276 277 277 277 275 274 274 274 275 276 276 275 273 271 269 269 269 270 272 275 276 276 277 279 283 288 291 293 295 296 296 295 293 292 291 291 292 293 294 295 295 295 296 296 296 297 298 298 299 299 300 300 300 299 299 298 298 298
260 259 258 261 267 269 268 266 264 263 262 261 260 259 259 261 264 264 264 264 264 265 266 267 267 268 270 273 275 277 278 278 277 276 274 273 275 277 277 277 276 275 273 272 271 271 274 276 275 274 276 280 285 291 294 295 296 296 294 293 291 290 289 290 291 292 293 294 294 294 295 296 296 297 298 298 299 299 299 299 299 299 298 298 297 297
260 259 260 264 267 266 264 262 262 263 263 263 264 265 264 264 264 262 261 262 263 263 265 266 266 267 270 272 273 274 275 275 275 275 274 275 276 277 277 278 277 277 277 276 274 274 274 275 274 275 278 283 289 293 295 295 295 294 292 290 289 288 288 289 291 292 292 292 293 293 294 295 296 297 298 299 299 299 299 299 298 298 297 296 296 296
256 257 260 264 266 263 262 262 264 265 264 263 263 262 262 262 262 261 260 260 261 261 263 265 267 270 271 272 273 275 275 273 272 273 273 274 276 278 279 279 280 281 280 277 274 273 273 273 275 278 282 287 290 292 293 293 293 291 289 288 287 288 289 290 291 291 291 291 292 293 294 295 297 298 299 299 299 298 298 298 297 297 296 295 295 296
259 260 261 263 262 260 260 262 262 261 258 257 257 256 256 255 255 255 255 256 259 263 265 267 270 272 274 275 276 277 277 274 272 270 269 271 276 280 281 281 282 283 281 277 273 272 272 273 276 281 286 289 291 291 292 292 291 289 288 287 288 289 290 291 291 291 291 291 292 294 295 297 298 298 298 298 298 298 297 297 296 296 295 296 296 296
261 262 262 260 258 257 259 259 259 258 256 254 253 252 252 252 251 252 254 256 262 266 266 268 272 274 275 276 276 275 275 273 271 270 271 274 278 281 281 281 281 281 280 277 275 274 274 276 280 285 289 290 290 291 291 290 289 287 287 288 289 290 290 290 290 290 291 292 294 295 296 297 298 298 297 297 297 297 296 296 295 295 296 296 296 297
262 262 261 258 254 254 255 256 256 256 256 253 251 250 251 252 252 253 255 259 263 265 267 270 272 272 273 272 272 271 271 271 272 274 276 278 280 280 280 280 279 279 278 276 274 274 275 278 283 287 288 289 290 290 289 287 286 286 288 289 289 289 289 289 289 290 291 293 295 296 296 297 297 296 296 296 296 295 295 295 295 296 296 296 297 297
259 259 258 257 254 252 252 253 252 254 255 254 253 253 253 253 253 254 256 259 262 264 267 270 271 273 274 273 271 271 271 272 274 276 277 278 278 278 278 278 278 278 277 276 275 276 277 281 284 286 287 288 288 287 286 285 286 287 287 287 287 287 287 287 289 291 293 294 295 295 295 295 295 295 295 294 294 294 294 294 295 296 296 297 297 297
257 257 256 257 256 254 253 253 253 253 255 255 254 254 254 254 254 254 255 258 261 264 267 269 271 273 273 272 272 271 272 273 273 275 276 277 277 277 277 277 277 276 276 276 276 277 279 282 284 285 286 287 287 287 287 288 287 287 286 285 285 286 286 288 290 293 294 294 294 294 294 294 294 294 293 293 293 293 294 295 295 296 296 296 296 296
257 258 258 258 259 258 257 256 255 255 256 255 253 253 254 254 256 257 258 260 264 267 268 268 270 272 272 272 272 272 271 271 272 273 275 275 276 276 276 276 276 276 277 277 276 277 279 282 283 285 286 288 289 289 289 287 285 284 284 284 285 287 288 291 293 294 294 293 294 294 293 293 293 292 292 292 293 293 294 294 295 295 296 296 296 297
256 258 259 261 262 262 259 258 258 257 255 254 253 253 255 256 258 260 261 263 266 269 269 268 269 271 269 268 267 268 269 270 272 272 273 273 274 274 274 275 275 276 277 275 275 276 280 282 284 286 288 289 289 288 285 283 282 283 284 286 288 290 291 293 294 293 293 293 293 293 292 292 291 291 291 292 292 293 293 294 295 295 295 296 297 297
256 258 259 260 262 262 259 258 259 256 255 257 258 256 255 257 260 263 264 266 268 269 269 270 270 270 268 267 267 267 267 268 269 270 272 273 273 273 273 274 275 274 273 273 275 278 281 283 286 288 288 287 284 282 281 281 282 284 286 288 290 292 293 294 294 293 292 292 292 292 291 290 290 290 291 291 291 292 293 294 295 295 295 296 297 297
254 255 257 258 260 259 256 255 255 254 256 260 261 259 258 260 262 265 266 267 268 270 271 272 272 272 272 271 270 268 268 268 269 271 273 273 272 272 272 273 272 271 272 274 278 281 283 285 287 286 283 281 279 279 280 281 284 287 289 291 292 293 293 293 293 292 291 291 291 291 290 288 288 289 290 290 291 292 293 294 294 295 295 296 297 297
248 250 253 255 256 256 255 253 253 255 257 258 259 259 260 260 262 265 266 267 269 271 272 271 270 270 270 269 268 268 268 269 269 270 271 270 270 270 270 271 272 273 275 278 280 282 284 284 282 279 278 278 278 280 282 285 287 289 291 292 292 293 293 292 291 291 290 290 289 289 288 287 287 288 289 290 291 292 293 293 293 294 295 296 297 297
245 247 250 252 253 254 255 254 255 256 256 255 255 256 257 258 261 264 266 267 268 270 270 269 269 269 269 269 269 269 268 268 268 268 268 268 269 270 271 272 274 276 278 279 281 281 280 278 276 276 277 278 280 283 286 288 290 291 292 292 292 292 291 291 290 289 288 288 288 287 286 285 286 288 289 290 291 292 292 292 293 294 295 296 296 296
248 249 250 252 252 252 253 254 255 255 255 255 256 257 258 259 262 264 266 267 268 270 270 270 269 269 268 267 267 266 266 265 266 268 269 270 271 272 272 274 275 277 277 278 277 276 275 274 276 277 280 282 285 287 289 290 291 292 292 292 291 290 289 288 287 287 287 286 285 284 284 285 287 288 288 289 290 290 291 291 293 294 295 295 295 295
250 250 250 251 251 250 251 253 254 255 255 256 257 258 260 262 263 265 266 266 267 269 269 268 267 266 265 264 264 264 264 266 267 268 269 270 271 272 273 274 275 275 274 273 273 273 274 276 279 281 284 286 288 290 291 291 292 292 291 290 289 288 287 286 286 286 285 283 283 283 285 286 287 287 288 289 289 290 291 292 293 293 294 294 294 294
248 249 249 249 249 250 251 252 253 255 256 257 258 260 262 262 263 264 265 266 266 266 266 265 264 263 262 262 263 265 266 268 268 268 268 270 271 272 273 273 273 272 272 273 274 276 278 281 283 285 287 289 290 291 292 291 291 290 289 287 286 286 286 285 284 283 282 282 283 285 285 286 287 287 288 289 289 290 291 292 292 292 292 292 293 293
249 250 250 251 251 252 252 254 255 255 256 258 259 260 261 262 262 262 263 264 264 262 262 262 262 262 263 264 265 266 267 267 267 268 268 269 270 270 271 272 272 273 274 277 279 281 283 285 287 288 289 290 290 290 290 289 288 287 286 285 285 285 284 282 282 281 282 283 285 285 286 286 287 288 288 289 289 290 290 291 291 291 291 291 291 291
249 250 250 251 252 252 253 255 255 255 256 257 259 259 259 260 260 260 261 260 259 259 260 260 261 262 263 264 265 265 266 266 267 268 268 268 269 270 271 273 275 277 279 281 283 285 286 287 288 289 289 289 289 289 288 287 286 285 284 284 284 283 282 281 282 283 284 285 286 286 286 287 287 288 288 289 289 289 289 289 290 290 290 290 290 291
248 248 248 249 249 250 250 251 252 253 254 255 255 255 256 256 256 256 257 257 257 258 259 260 261 262 263 264 265 265 266 267 268 269 270 271 272 273 275 278 280 282 283 284 285 286 287 288 288 289 289 288 288 287 286 285 284 284 284 284 283 282 282 282 283 284 286 286 287 287 287 287 287 288 288 288 288 288 288 289 289 289 289 289 290 291
247 247 247 247 247 247 248 249 250 252 252 251 251 251 252 252 253 254 254 256 257 258 259 260 261 262 263 264 266 267 268 270 270 271 273 274 276 278 280 282 284 285 285 286 287 287 288 288 288 288 288 287 286 285 284 284 283 283 284 283 282 282 283 284 285 286 287 287 287 287 287 287 287 287 287 287 287 287 288 288 288 288 289 289 290 291
246 245 245 245 245 245 247 248 249 250 250 250 250 251 251 252 254 254 254 255 256 257 259 260 262 264 266 267 269 271 272 273 274 276 277 279 280 282 283 284 285 286 286 286 287 287 287 287 287 286 286 285 284 283 283 283 283 283 283 282 282 283 284 285 286 286 286 286 286 286 286 286 286 286 286 286 286 286 287 287 288 288 289 290 291 293
243 243 243 244 244 245 246 247 249 250 251 252 253 253 255 256 258 258 259 259 259 260 262 263 265 268 270 271 273 274 275 277 278 280 281 282 283 284 284 285 285 285 285 285 285 285 285 285 284 284 283 283 282 282 282 282 282 283 283 283 283 284 285 286 286 286 286 286 286 286 286 286 285 285 285 285 286 286 286 287 288 289 290 291 292 293
241 242 243 244 245 247 248 249 251 254 256 258 259 260 261 262 263 263 263 264 264 265 267 269 271 273 275 276 277 278 280 281 282 283 284 284 284 284 284 284 284 284 284 284 283 283 283 283 282 281 281 282 282 282 282 282 283 283 283 284 285 285 286 286 286 286 286 286 286 286 285 285 284 285 285 285 285 286 286 288 289 290 291 292 293 293
242 244 245 246 248 250 252 253 256 260 263 265 266 267 267 267 267 267 268 269 271 273 275 277 278 279 279 280 280 281 282 283 283 284 284 284 284 284 283 283 283 283 282 282 282 282 281 281 281 281 282 282 282 282 283 283 284 284 284 285 285 286 286 286 286 286 286 286 285 285 284 284 284 284 284 284 285 286 287 289 290 291 292 292 293 294
245 247 249 251 254 257 259 261 264 267 269 269 270 271 271 272 273 274 275 276 278 279 280 280 280 280 281 281 282 283 283 283 283 283 283 283 282 282 282 281 281 281 281 281 281 281 281 281 282 282 282 282 282 283 283 283 284 284 285 285 286 286 286 286 285 285 285 284 284 283 283 283 283 283 284 285 286 287 289 290 291 292 292 293 294 295
250 253 256 260 263 264 266 268 270 271 272 272 273 274 275 276 277 279 279 280 280 280 280 280 281 281 282 282 282 282 282 282 282 281 281 281 281 280 280 280 280 280 280 280 280 281 282 282 282 282 283 283 283 283 283 284 285 285 286 286 286 286 285 284 283 283 282 282 282 282 282 282 282 283 284 286 287 288 290 291 291 292 293 294 295 295
256 259 262 265 267 268 270 272 273 274 275 275 276 277 278 279 279 280 280 280 280 280 281 281 282 282 282 282 282 282 281 281 280 280 280 280 280 280 280 279 279 279 280 280 281 282 282 282 282 283 283 283 284 284 285 286 286 287 286 286 285 284 283 282 281 280 280 280 280 280 280 281 282 284 285 287 288 289 290 291 292 293 293 294 295 296
Height
5831 5831 5832 5833 5834 5833 5832 5832 5831 5831 5829 5829 5830 5830 5830 5830 5831 5831 5828 5828 5829 5828 5829 5830 5829 5830 5830 5828 5829 5831 5831 5830 5829 5829 5829 5829 5828 5828 5828 5828 5828 5828 5828 5828 5828 5828 5827 5827 5827 5827 5827 5827 5827 5828 5828 5828 5828 5828 5828 5827 5827 5827 5826 5826 5825 5825 5824 5824 5823 5823 5823 5822 5822 5821 5821 5820 5820 5819 5819 5818 5817 5817 5816 5815 5814 5814
5827 5827 5829 5831 5829 5828 5827 5828 5828 5827 5825 5825 5827 5827 5827 5827 5828 5827 5825 5824 5825 5824 5825 5826 5825 5826 5828 5826 5825 5827 5828 5826 5826 5825 5825 5825 5824 5824 5824 5824 5824 5824 5824 5824 5824 5824 5824 5824 5824 5824 5824 5824 5824 5824 5824 5825 5824 5824 5824 5824 5824 5823 5823 5823 5822 5821 5821 5820 5820 5819 5819 5819 5818 5818 5817 5817 5816 5815 5815 5814 5814 5813 5812 5812 5811 5810
5823 5824 5826 5826 5824 5823 5823 5823 5823 5823 5822 5822 5823 5823 5823 5824 5824 5823 5822 5822 5822 5821 5821 5822 5821 5822 5824 5823 5822 5823 5824 5823 5822 5822 5821 5821 5821 5820 5820 5820 5820 5820 5820 5821 5821 5820 5820 5820 5820 5820 5820 5821 5821 5821 5821 5821 5821 5821 5821 5820 5820 5820 5820 5819 5819 5818 5817 5817 5816 5816 5815 5815 5815 5814 5814 5813 5813 5812 5811 5811 5810 5809 5808 5808 5807 5806
5819 5821 5821 5820 5819 5820 5820 5820 5818 5818 5819 5819 5819 5819 5820 5821 5820 5819 5819 5818 5819 5818 5817 5817 5816 5818 5821 5820 5819 5819 5820 5820 5819 5818 5817 5817 5817 5817 5816 5816 5816 5816 5817 5817 5817 5817 5817 5817 5817 5817 5817 5817 5817 5817 5817 5817 5817 5817 5817 5817 5817 5816 5816 5816 5815 5815 5814 5813 5813 5813 5812 5812 5811 5811 5811 5810 5809 5809 5808 5807 5806 5805 5803 5802 5801 5800
5815 5816 5814 5816 5817 5816 5816 5815 5815 5815 5814 5815 5815 5815 5816 5817 5816 5816 5815 5814 5815 5815 5814 5813 5811 5814 5818 5817 5816 5817 5816 5816 5815 5814 5813 5813 5813 5813 5812 5812 5812 5813 5813 5813 5813 5813 5814 5814 5814 5814 5814 5814 5814 5814 5814 5814 5814 5814 5814 5813 5813 5813 5812 5812 5812 5811 5811 5810 5810 5810 5809 5809 5808 5808 5807 5806 5805 5804 5803 5802 5801 5800 5798 5797 5796 5794
5811 5810 5809 5811 5813 5813 5812 5811 5811 5811 5811 5811 5812 5812 5813 5813 5812 5812 5811 5810 5810 5811 5811 5809 5806 5808 5813 5813 5813 5815 5814 5812 5810 5810 5810 5809 5809 5809 5809 5809 5809 5809 5809 5809 5810 5810 5810 5810 5810 5810 5811 5811 5811 5811 5811 5811 5811 5810 5810 5810 5809 5809 5808 5808 5808 5808 5807 5807 5807 5807 5806 5806 5805 5804 5804 5803 5801 5800 5799 5797 5796 5795 5793 5792 5791 5789
5806 5806 5805 5806 5808 5809 5808 5807 5808 5808 5807 5807 5807 5808 5809 5809 5809 5808 5808 5805 5805 5806 5806 5805 5803 5803 5807 5810 5810 5810 5809 5808 5807 5805 5806 5806 5805 5806 5805 5805 5806 5805 5806 5806 5807 5807 5807 5807 5807 5807 5807 5808 5808 5808 5807 5807 5807 5807 5806 5806 5805 5805 5805 5804 5804 5804 5804 5803 5803 5803 5802 5802 5801 5800 5799 5798 5797 5796 5794 5793 5791 5790 5788 5787 5785 5784
5801 5802 5802 5802 5802 5804 5804 5804 5805 5804 5804 5803 5803 5804 5804 5805 5805 5804 5804 5802 5801 5801 5799 5800 5801 5799 5801 5805 5806 5805 5804 5804 5804 5802 5802 5802 5802 5802 5802 5802 5802 5802 5803 5803 5803 5804 5804 5804 5804 5804 5804 5804 5804 5804 5804 5804 5804 5803 5803 5802 5802 5801 5801 5801 5801 5800 5800 5800 5799 5799 5798 5797 5797 5796 5794 5793 5792 5791 5789 5787 5786 5784 5783 5781 5780 5778
5796 5797 5797 5798 5798 5799 5800 5801 5801 5800 5799 5799 5799 5800 5799 5799 5800 5800 5799 5798 5797 5795 5794 5796 5798 5796 5796 5799 5800 5800 5800 5800 5800 5798 5797 5798 5798 5798 5799 5799 5799 5799 5800 5800 5800 5800 5800 5800 5800 5801 5801 5801 5801 5801 5801 5800 5800 5799 5799 5798 5798 5798 5798 5798 5797 5797 5796 5796 5795 5795 5794 5793 5792 5791 5789 5788 5787 5785 5784 5782 5781 5779 5778 5776 5775 5773
5790 5791 5794 5794 5794 5795 5796 5797 5797 5796 5795 5795 5795 5795 5795 5794 5795 5795 5794 5794 5793 5789 5789 5793 5795 5793 5792 5793 5793 5795 5797 5796 5795 5794 5793 5794 5794 5795 5796 5796 5796 5796 5796 5797 5797 5797 5797 5797 5797 5797 5797 5797 5797 5797 5797 5797 5796 5795 5795 5795 5794 5794 5794 5794 5793 5793 5792 5792 5791 5790 5789 5788 5787 5786 5785 5783 5782 5780 5779 5777 5776 5774 5773 5771 5769 5768
5785 5787 5789 5789 5790 5791 5792 5792 5792 5791 5790 5791 5791 5790 5791 5790 5790 5790 5789 5789 5786 5784 5787 5790 5791 5789 5786 5787 5789 5791 5793 5792 5790 5790 5789 5790 5790 5791 5792 5792 5793 5793 5794 5794 5794 5794 5794 5794 5794 5794 5794 5794 5794 5794 5793 5793 5792 5792 5792 5791 5791 5791 5790 5790 5790 5789 5789 5788 5787 5786 5785 5784 5782 5781 5780 5778 5777 5775 5774 5772 5770 5769 5767 5765 5763 5761
5782 5782 5783 5784 5785 5786 5786 5787 5787 5787 5787 5787 5787 5786 5787 5785 5785 5784 5783 5783 5780 5781 5785 5786 5786 5785 5780 5782 5786 5786 5787 5787 5786 5786 5785 5785 5786 5787 5788 5788 5789 5790 5790 5791 5791 5791 5790 5790 5791 5791 5791 5791 5791 5790 5790 5789 5789 5788 5788 5788 5787 5787 5787 5786 5786 5785 5784 5783 5782 5781 5780 5778 5777 5776 5774 5773 5771 5770 5768 5766 5765 5763 5761 5759 5757 5755
5777 5778 5778 5778 5779 5781 5782 5782 5782 5783 5784 5783 5782 5782 5781 5780 5778 5777 5777 5778 5777 5779 5782 5781 5780 5778 5775 5779 5783 5781 5781 5782 5782 5781 5781 5781 5782 5783 5784 5785 5786 5786 5787 5787 5787 5787 5787 5787 5787 5787 5787 5787 5787 5786 5786 5785 5785 5784 5784 5784 5783 5783 5783 5782 5781 5781 5780 5778 5777 5776 5774 5773 5772 5770 5768 5767 5765 5763 5761 5760 5758 5756 5754 5752 5750 5747
5771 5772 5773 5774 5775 5776 5777 5777 5778 5778 5778 5777 5777 5776 5776 5775 5772 5771 5772 5774 5774 5776 5777 5776 5773 5770 5770 5776 5780 5778 5776 5776 5777 5778 5778 5778 5778 5779 5780 5781 5782 5782 5783 5783 5783 5783 5783 5784 5784 5784 5783 5783 5782 5782 5781 5781 5781 5780 5780 5779 5779 5779 5778 5777 5776 5775 5774 5773 5771 5770 5769 5767 5765 5764 5762 5760 5759 5757 5755 5753 5751 5749 5747 5745 5742 5740
5764 5766 5769 5770 5771 5771 5771 5772 5772 5772 5771 5771 5772 5771 5770 5769 5769 5769 5770 5769 5769 5770 5770 5769 5767 5766 5768 5772 5774 5775 5773 5772 5774 5774 5774 5774 5774 5775 5776 5777 5778 5778 5779 5779 5779 5779 5780 5780 5780 5779 5779 5778 5778 5778 5777 5776 5776 5776 5775 5775 5774 5773 5772 5772 5770 5769 5768 5766 5765 5764 5762 5761 5759 5757 5756 5754 5752 5751 5749 5747 5745 5742 5740 5738 5735 5733
5759 5761 5763 5764 5765 5766 5765 5766 5765 5765 5765 5766 5766 5764 5764 5766 5768 5768 5767 5764 5764 5763 5762 5761 5762 5764 5766 5766 5768 5770 5770 5770 5770 5770 5770 5770 5770 5772 5773 5773 5774 5775 5775 5775 5775 5776 5776 5776 5776 5775 5774 5774 5773 5773 5772 5772 5771 5771 5770 5769 5769 5768 5767 5766 5764 5763 5762 5760 5759 5758 5756 5754 5753 5751 5749 5747 5746 5744 5742 5740 5738 5735 5733 5731 5728 5725
5752 5754 5756 5756 5758 5760 5760 5760 5760 5759 5759 5759 5759 5759 5761 5763 5764 5763 5761 5760 5760 5757 5755 5756 5757 5759 5761 5761 5763 5765 5767 5767 5766 5765 5766 5766 5767 5769 5769 5770 5770 5771 5771 5771 5771 5772 5772 5771 5771 5770 5769 5769 5768 5768 5767 5767 5766 5765 5765 5764 5763 5762 5761 5759 5758 5757 5756 5754 5753 5751 5749 5747 5746 5744 5742 5740 5738 5737 5735 5733 5730 5728 5726 5723 5720 5717
5746 5746 5748 5749 5751 5753 5754 5754 5754 5753 5752 5752 5754 5757 5759 5758 5757 5757 5755 5756 5756 5752 5751 5752 5753 5754 5755 5756 5758 5761 5762 5762 5762 5762 5762 5763 5764 5765 5765 5766 5766 5767 5767 5767 5767 5767 5767 5766 5766 5765 5764 5764 5763 5763 5762 5761 5761 5760 5759 5758 5757 5756 5755 5753 5752 5751 5749 5748 5746 5744 5742 5741 5739 5737 5735 5733 5731 5729 5727 5725 5723 5720 5717 5714 5711 5708
5741 5740 5741 5742 5744 5746 5748 5747 5747 5746 5746 5748 5750 5752 5753 5751 5751 5752 5751 5751 5750 5748 5747 5747 5747 5748 5749 5751 5754 5756 5757 5757 5757 5758 5759 5759 5760 5760 5761 5761 5762 5762 5763 5762 5762 5762 5762 5761 5760 5760 5759 5759 5758 5757 5757 5756 5756 5755 5754 5753 5751 5750 5749 5748 5746 5745 5743 5741 5739 5738 5736 5734 5732 5730 5727 5726 5724 5722 5719 5717 5714 5711 5708 5705 5702 5698
5735 5735 5735 5735 5736 5738 5739 5740 5741 5743 5744 5745 5746 5745 5745 5745 5745 5746 5746 5746 5745 5743 5742 5741 5741 5742 5744 5746 5749 5750 5752 5753 5754 5755 5755 5755 5755 5755 5756 5756 5756 5757 5757 5757 5757 5757 5756 5756 5755 5755 5754 5754 5753 5752 5752 5751 5750 5749 5748 5747 5745 5744 5743 5741 5740 5738 5736 5735 5733 5731 5729 5726 5724 5722 5720 5718 5716 5713 5710 5708 5705 5702 5699 5696 5692 5689
5728 5728 5729 5730 5730 5731 5732 5735 5738 5739 5740 5739 5739 5738 5738 5739 5739 5739 5739 5739 5739 5738 5738 5736 5736 5738 5739 5740 5742 5744 5746 5749 5750 5751 5752 5751 5751 5750 5750 5751 5751 5751 5751 5751 5751 5751 5751 5750 5749 5749 5749 5748 5747 5746 5746 5745 5744 5743 5742 5740 5739 5737 5736 5734 5733 5731 5730 5728 5726 5724 5721 5719 5717 5714 5712 5709 5707 5704 5701 5699 5696 5693 5690 5686 5683 5679
5722 5723 5724 5723 5724 5724 5726 5729 5730 5731 5731 5732 5732 5732 5732 5733 5733 5732 5732 5733 5734 5734 5735 5733 5731 5732 5733 5732 5735 5738 5740 5743 5745 5746 5747 5746 5746 5745 5745 5745 5744 5745 5745 5745 5745 5745 5744 5744 5743 5743 5742 5741 5740 5740 5739 5738 5737 5736 5734 5733 5732 5730 5729 5727 5726 5724 5722 5721 5719 5716 5714 5711 5709 5706 5704 5701 5698 5695 5692 5690 5687 5684 5680 5677 5673 5669
5716 5715 5716 5716 5717 5719 5720 5721 5721 5722 5724 5724 5724 5725 5725 5725 5726 5727 5728 5729 5730 5729 5730 5728 5725 5726 5728 5728 5729 5731 5733 5735 5737 5739 5741 5740 5740 5740 5739 5739 5739 5739 5739 5739 5739 5739 5738 5738 5737 5736 5735 5734 5734 5733 5732 5731 5730 5729 5727 5726 5724 5723 5721 5720 5719 5717 5715 5713 5711 5709 5706 5704 5701 5698 5695 5693 5689 5687 5684 5681 5677 5674 5671 5667 5663 5660
5709 5708 5710 5711 5712 5712 5712 5712 5713 5713 5714 5714 5716 5719 5720 5721 5723 5724 5724 5724 5723 5723 5724 5722 5719 5721 5724 5724 5725 5726 5727 5728 5730 5732 5733 5733 5734 5733 5733 5733 5733 5733 5733 5733 5733 5733 5732 5732 5731 5729 5729 5728 5728 5727 5726 5724 5723 5722 5720 5719 5717 5716 5714 5713 5711 5709 5707 5705 5703 5700 5698 5695 5693 5690 5687 5684 5681 5678 5675 5671 5668 5665 5661 5657 5654 5650
5703 5703 5704 5705 5705 5704 5703 5704 5705 5706 5708 5709 5712 5715 5716 5717 5718 5717 5718 5717 5716 5717 5718 5714 5713 5717 5720 5719 5719 5721 5722 5723 5724 5725 5725 5726 5726 5726 5726 5727 5726 5726 5726 5727 5727 5727 5726 5725 5724 5723 5722 5722 5722 5721 5719 5717 5716 5715 5714 5712 5710 5709 5707 5705 5703 5701 5699 5697 5694 5692 5690 5687 5684 5681 5678 5675 5672 5669 5665 5662 5659 5655 5651 5648 5644 5640
5697 5696 5697 5697 5697 5697 5697 5698 5700 5703 5704 5705 5707 5709 5710 5711 5711 5711 5712 5710 5708 5710 5711 5708 5709 5714 5715 5714 5714 5715 5716 5718 5719 5718 5718 5718 5718 5718 5719 5720 5719 5719 5720 5721 5720 5720 5720 5718 5717 5717 5717 5716 5716 5714 5712 5710 5709 5708 5706 5705 5703 5701 5699 5697 5695 5692 5690 5688 5686 5683 5681 5678 5675 5672 5669 5665 5662 5659 5655 5652 5649 5645 5641 5638 5634 5630
5689 5688 5690 5691 5690 5691 5694 5695 5695 5696 5697 5698 5701 5702 5703 5705 5705 5704 5703 5701 5703 5705 5704 5704 5707 5709 5709 5709 5709 5710 5710 5710 5711 5711 5710 5711 5712 5712 5712 5712 5712 5712 5713 5713 5713 5713 5712 5712 5711 5711 5710 5709 5707 5705 5704 5702 5701 5700 5698 5696 5694 5692 5690 5688 5685 5683 5680 5678 5676 5673 5670 5668 5665 5662 5658 5655 5652 5648 5645 5641 5638 5634 5631 5627 5624 5620
5681 5680 5683 5684 5684 5687 5690 5690 5689 5689 5690 5692 5694 5695 5697 5697 5697 5695 5693 5697 5701 5699 5698 5701 5703 5704 5704 5704 5704 5704 5703 5702 5703 5703 5703 5705 5707 5706 5704 5704 5705 5705 5705 5705 5705 5705 5704 5704 5704 5703 5702 5700 5698 5696 5695 5694 5693 5691 5689 5687 5685 5683 5681 5678 5675 5673 5671 5668 5666 5663 5660 5657 5655 5652 5648 5645 5642 5638 5634 5631 5627 5624 5621 5618 5614 5611
5673 5675 5678 5677 5678 5683 5684 5683 5684 5683 5683 5686 5687 5689 5691 5690 5689 5688 5689 5695 5695 5690 5693 5697 5695 5697 5699 5697 5697 5698 5696 5696 5697 5698 5699 5699 5699 5699 5697 5697 5698 5698 5697 5697 5697 5697 5698 5697 5696 5695 5693 5691 5690 5689 5688 5687 5685 5682 5681 5678 5676 5674 5672 5669 5666 5664 5662 5660 5657 5653 5651 5648 5645 5642 5638 5635 5631 5628 5624 5621 5618 5615 5612 5608 5605 5602
5666 5669 5672 5670 5671 5677 5677 5677 5678 5678 5677 5679 5681 5683 5685 5684 5683 5682 5685 5689 5686 5684 5690 5690 5686 5691 5694 5690 5691 5692 5691 5692 5692 5692 5692 5692 5692 5692 5690 5690 5690 5690 5689 5689 5690 5691 5691 5690 5688 5686 5685 5684 5683 5682 5681 5679 5677 5675 5673 5670 5667 5665 5664 5661 5658 5657 5654 5651 5648 5644 5641 5639 5636 5632 5628 5625 5621 5618 5615 5612 5608 5605 5603 5600 5597 5594
5659 5662 5665 5664 5663 5668 5672 5672 5671 5671 5671 5674 5675 5677 5679 5676 5674 5675 5679 5683 5679 5680 5686 5684 5680 5685 5686 5683 5686 5687 5685 5686 5686 5685 5685 5684 5684 5684 5682 5682 5682 5682 5683 5683 5684 5684 5682 5680 5679 5678 5678 5677 5676 5674 5672 5671 5668 5666 5664 5662 5659 5657 5655 5653 5651 5649 5646 5642 5639 5635 5632 5629 5626 5622 5619 5615 5612 5608 5605 5603 5600 5597 5594 5591 5588 5585
5653 5654 5657 5657 5655 5660 5667 5665 5663 5665 5665 5665 5668 5672 5672 5667 5667 5670 5674 5676 5674 5676 5680 5677 5675 5679 5679 5678 5680 5680 5678 5677 5677 5677 5678 5677 5677 5676 5675 5674 5674 5675 5676 5677 5676 5675 5673 5671 5671 5671 5671 5669 5668 5666 5664 5662 5660 5657 5655 5653 5651 5648 5646 5645 5643 5640 5636 5633 5629 5626 5623 5619 5616 5612 5609 5605 5602 5599 5596 5594 5591 5589 5586 5583 5580 5577
5646 5647 5650 5650 5648 5653 5658 5656 5656 5658 5653 5653 5662 5669 5666 5661 5663 5665 5667 5668 5669 5670 5670 5668 5670 5673 5672 5671 5671 5670 5670 5670 5670 5670 5670 5670 5670 5669 5667 5667 5667 5668 5670 5669 5668 5666 5665 5664 5663 5662 5662 5661 5659 5658 5655 5653 5651 5649 5647 5645 5642 5640 5638 5636 5634 5630 5626 5623 5620 5617 5613 5609 5605 5602 5599 5596 5593 5590 5588 5585 5583 5580 5578 5575 5572 5569
5640 5641 5643 5644 5641 5644 5648 5649 5649 5646 5641 5647 5659 5662 5658 5656 5657 5659 5660 5661 5661 5661 5661 5661 5663 5664 5662 5663 5664 5663 5663 5664 5663 5663 5663 5663 5662 5660 5661 5662 5662 5662 5661 5660 5659 5658 5657 5656 5655 5654 5654 5652 5651 5650 5647 5645 5643 5641 5639 5636 5633 5631 5629 5627 5624 5620 5617 5613 5611 5609 5605 5599 5595 5592 5590 5587 5584 5582 5580 5577 5575 5572 5569 5567 5564 5561
5633 5634 5636 5636 5635 5635 5639 5641 5637 5633 5635 5644 5650 5651 5650 5650 5650 5650 5652 5654 5653 5652 5653 5655 5656 5656 5654 5655 5656 5656 5656 5656 5655 5656 5657 5655 5654 5653 5655 5656 5655 5654 5652 5651 5650 5650 5649 5648 5647 5646 5645 5644 5643 5641 5639 5638 5635 5632 5630 5627 5624 5622 5619 5617 5614 5610 5607 5605 5602 5600 5596 5590 5586 5584 5582 5579 5576 5574 5572 5569 5566 5564 5561 5559 5556 5552
5626 5627 5628 5628 5627 5627 5629 5629 5626 5626 5633 5639 5640 5641 5642 5641 5640 5641 5643 5647 5648 5645 5645 5648 5649 5649 5646 5646 5647 5648 5648 5649 5649 5650 5650 5648 5647 5647 5648 5648 5646 5645 5644 5643 5643 5642 5641 5640 5639 5638 5637 5635 5634 5632 5630 5629 5626 5623 5620 5618 5615 5612 5610 5607 5604 5601 5599 5596 5594 5591 5586 5581 5578 5576 5574 5571 5568 5566 5564 5561 5558 5556 5553 5550 5547 5543
5617 5619 5619 5619 5618 5619 5619 5619 5620 5623 5627 5630 5631 5632 5633 5633 5633 5633 5634 5640 5641 5637 5636 5639 5642 5641 5638 5639 5640 5640 5640 5640 5641 5644 5644 5641 5640 5640 5639 5638 5637 5636 5636 5636 5635 5634 5633 5632 5630 5629 5628 5626 5625 5623 5621 5618 5616 5614 5611 5608 5606 5603 5600 5597 5595 5593 5591 5588 5585 5582 5577 5573 5570 5568 5566 5563 5561 5559 5556 5553 5550 5548 5545 5542 5538 5535
5609 5610 5611 5611 5609 5611 5611 5611 5613 5615 5617 5622 5625 5624 5624 5627 5627 5625 5626 5631 5634 5630 5627 5631 5635 5634 5631 5631 5632 5632 5631 5631 5634 5639 5637 5632 5631 5630 5629 5630 5629 5628 5628 5628 5627 5626 5625 5623 5622 5620 5619 5617 5615 5614 5611 5608 5606 5604 5602 5599 5597 5594 5591 5589 5587 5585 5582 5579 5576 5572 5568 5565 5563 5561 5558 5556 5553 5550 5547 5544 5541 5539 5536 5533 5529 5526
5601 5602 5604 5602 5600 5602 5604 5603 5605 5607 5610 5615 5618 5616 5617 5619 5619 5617 5617 5622 5626 5623 5619 5621 5626 5626 5624 5623 5624 5623 5623 5624 5629 5631 5627 5623 5621 5620 5621 5622 5621 5620 5620 5619 5618 5618 5616 5615 5613 5611 5610 5608 5605 5603 5601 5599 5597 5595 5593 5591 5588 5585 5583 5581 5579 5576 5572 5569 5566 5563 5561 5558 5555 5553 5550 5548 5544 5541 5538 5536 5533 5530 5527 5524 5521 5518
5592 5594 5595 5594 5593 5595 5597 5596 5598 5601 5604 5608 5609 5608 5608 5609 5610 5609 5608 5613 5620 5617 5612 5614 5617 5616 5615 5615 5615 5616 5616 5617 5620 5620 5617 5615 5614 5612 5612 5613 5612 5612 5612 5610 5609 5608 5607 5605 5604 5602 5601 5598 5596 5594 5591 5589 5588 5586 5584 5582 5579 5577 5575 5573 5570 5566 5562 5559 5558 5556 5553 5551 5547 5545 5542 5539 5535 5532 5529 5527 5524 5521 5518 5515 5512 5510
5584 5586 5587 5587 5588 5589 5589 5589 5590 5593 5597 5600 5600 5600 5600 5599 5600 5602 5603 5607 5610 5608 5606 5607 5607 5607 5608 5608 5609 5610 5609 5608 5609 5609 5608 5609 5607 5605 5604 5604 5603 5603 5602 5601 5600 5598 5597 5596 5595 5593 5592 5590 5587 5585 5583 5581 5579 5577 5575 5573 5571 5569 5566 5563 5559 5556 5554 5552 5551 5548 5546 5542 5539 5536 5533 5529 5526 5523 5520 5518 5515 5512 5509 5506 5505 5502
5578 5578 5579 5581 5582 5583 5583 5582 5582 5584 5590 5593 5592 5591 5591 5591 5592 5595 5597 5597 5598 5599 5599 5600 5600 5601 5602 5601 5601 5602 5601 5599 5600 5600 5600 5600 5600 5598 5597 5595 5595 5595 5593 5592 5590 5589 5588 5587 5585 5584 5583 5581 5579 5576 5574 5572 5570 5568 5566 5564 5563 5560 5556 5552 5550 5548 5547 5545 5543 5540 5537 5534 5530 5527 5524 5521 5518 5514 5512 5509 5507 5504 5501 5498 5497 5495
5570 5571 5572 5574 5576 5575 5575 5574 5573 5577 5584 5586 5582 5582 5583 5582 5582 5586 5587 5587 5589 5592 5593 5593 5593 5594 5594 5594 5594 5593 5592 5592 5591 5591 5592 5592 5591 5591 5589 5588 5588 5586 5584 5583 5581 5580 5579 5577 5576 5575 5573 5571 5569 5566 5564 5563 5560 5558 5557 5555 5553 5549 5545 5543 5542 5540 5538 5536 5534 5531 5528 5524 5521 5518 5515 5512 5509 5506 5503 5501 5498 5496 5493 5490 5489 5487
5563 5564 5566 5568 5568 5567 5566 5567 5568 5572 5576 5576 5574 5574 5574 5573 5573 5577 5579 5580 5583 5585 5586 5585 5585 5585 5586 5586 5585 5585 5584 5584 5583 5583 5584 5583 5582 5582 5581 5580 5579 5576 5575 5573 5572 5570 5569 5567 5566 5564 5562 5560 5558 5556 5554 5553 5551 5549 5548 5545 5542 5538 5537 5535 5533 5531 5529 5527 5524 5521 5519 5515 5513 5510 5507 5504 5501 5497 5495 5492 5490 5488 5485 5483 5481 5479
5557 5559 5560 5561 5561 5560 5560 5562 5563 5565 5567 5567 5567 5567 5566 5565 5566 5569 5572 5573 5575 5577 5578 5578 5578 5578 5578 5578 5577 5577 5576 5575 5575 5575 5575 5574 5574 5573 5571 5570 5568 5567 5565 5563 5562 5560 5559 5557 5556 5554 5552 5550 5548 5546 5545 5543 5541 5540 5538 5535 5531 5530 5528 5527 5524 5523 5520 5518 5515 5512 5510 5507 5504 5501 5498 5495 5492 5489 5487 5485 5482 5480 5477 5475 5473 5471
5550 5553 5554 5554 5554 5553 5554 5556 5558 5558 5559 5560 5559 5558 5558 5558 5560 5562 5564 5566 5568 5569 5570 5571 5571 5571 5570 5570 5569 5568 5566 5566 5566 5566 5565 5565 5564 5562 5561 5560 5558 5557 5555 5553 5552 5550 5549 5548 5546 5544 5542 5540 5538 5537 5536 5534 5532 5531 5528 5525 5522 5521 5520 5517 5515 5513 5511 5508 5506 5503 5501 5498 5495 5492 5490 5486 5484 5481 5479 5477 5475 5472 5470 5468 5465 5463
5544 5546 5546 5546 5546 5546 5548 5551 5551 5550 5551 5551 5550 5550 5551 5551 5552 5555 5557 5558 5560 5562 5563 5563 5564 5564 5563 5561 5560 5558 5557 5557 5556 5556 5555 5555 5553 5552 5551 5549 5548 5547 5545 5544 5542 5541 5540 5539 5537 5535 5533 5532 5529 5528 5526 5524 5523 5521 5518 5516 5514 5512 5510 5508 5506 5504 5501 5499 5496 5494 5491 5489 5486 5483 5481 5478 5475 5473 5471 5469 5467 5464 5462 5460 5457 5454
5538 5537 5538 5539 5539 5538 5540 5544 5543 5542 5542 5542 5541 5541 5542 5543 5545 5547 5549 5551 5553 5555 5555 5555 5556 5556 5554 5552 5550 5549 5549 5547 5546 5546 5545 5544 5543 5542 5540 5539 5538 5537 5535 5534 5533 5532 5530 5529 5528 5526 5525 5523 5520 5518 5517 5515 5514 5511 5509 5507 5505 5502 5500 5498 5496 5494 5491 5489 5487 5484 5482 5479 5477 5475 5472 5470 5468 5466 5464 5462 5460 5457 5455 5452 5449 5446
5532 5531 5531 5532 5530 5530 5533 5535 5534 5533 5533 5533 5532 5532 5533 5536 5538 5540 5542 5545 5546 5545 5545 5546 5546 5547 5545 5543 5541 5541 5540 5538 5537 5536 5536 5534 5533 5532 5530 5530 5529 5527 5526 5524 5523 5521 5520 5519 5518 5517 5516 5514 5511 5509 5508 5506 5504 5502 5500 5498 5496 5493 5491 5488 5486 5484 5481 5479 5477 5475 5472 5470 5468 5466 5464 5462 5460 5458 5456 5454 5452 5449 5447 5444 5441 5438
5526 5525 5524 5522 5521 5523 5525 5526 5524 5523 5523 5523 5525 5525 5526 5529 5532 5533 5535 5536 5536 5535 5536 5536 5537 5538 5536 5534 5533 5532 5531 5529 5527 5527 5526 5525 5524 5522 5521 5520 5519 5518 5516 5514 5513 5512 5511 5510 5509 5507 5506 5504 5501 5500 5499 5498 5495 5492 5490 5488 5486 5483 5481 5478 5476 5474 5472 5469 5467 5465 5463 5461 5460 5458 5457 5455 5453 5451 5448 5446 5444 5441 5439 5436 5433 5430
5519 5517 5514 5513 5514 5515 5517 5517 5515 5514 5514 5515 5517 5518 5519 5522 5524 5525 5526 5527 5526 5526 5527 5527 5528 5528 5527 5525 5524 5523 5522 5520 5518 5517 5517 5516 5514 5513 5512 5511 5510 5509 5507 5505 5504 5504 5502 5501 5499 5498 5497 5494 5492 5490 5489 5488 5485 5483 5480 5477 5475 5472 5470 5468 5466 5465 5463 5461 5459 5457 5455 5453 5452 5450 5449 5447 5445 5443 5440 5438 5435 5433 5430 5427 5424 5421